Temperature
15 15 16 15 15 15 15 15 15 16 16 16 15 15 15 15 15 15 15 15 15 15 15 15 15 15 15 15 15 15 15 15 15 15 15 15 15 15 15 15 14 14 15
15 15 15 15 15 15 15 15 15 15 15 15 15 15 15 15 15 15 15 15 15 15 15 15 15 15 15 15 15 15 15 15 15 14 14 14 14 14 14 14 14 14 15
15 15 15 15 15 15 15 15 15 15 15 15 15 15 15 15 15 15 15 15 15 15 15 15 15 15 15 15 14 14 15 15 15 14 14 14 14 14 14 14 14 14 14
14 14 15 15 15 15 15 15 15 15 15 15 15 15 15 15 15 15 15 15 15 15 15 15 15 15 15 15 14 14 14 14 14 14 13 13 13 14 14 14 14 14 14
14 14 14 15 15 15 15 15 15 15 15 15 15 15 15 15 15 15 15 15 15 15 15 15 15 15 15 14 14 14 14 14 14 13 13 13 13 14 14 14 14 14 14
14 14 14 14 15 15 15 15 15 15 15 15 15 15 15 15 15 15 15 15 15 15 15 14 15 14 14 14 14 14 14 14 14 13 13 13 13 13 14 14 14 14 14
13 14 14 14 14 14 15 15 15 15 15 15 15 15 15 15 15 15 15 15 14 14 14 14 14 14 14 14 14 14 14 14 13 13 13 12 13 13 13 13 13 13 14
13 13 14 14 14 14 14 14 14 14 15 15 14 14 14 14 14 15 14 14 14 14 14 14 14 14 14 14 14 14 14 13 13 12 12 12 13 13 13 13 13 13 13
13 13 13 13 14 14 14 14 14 14 14 14 14 14 14 14 14 14 14 14 14 14 14 14 14 14 14 14 14 13 13 13 12 12 12 12 12 13 13 13 13 13 13
12 13 13 13 13 13 13 14 14 14 14 14 14 14 14 14 14 14 14 14 14 14 14 14 14 14 14 13 13 13 13 13 12 12 12 12 12 12 13 13 13 13 13
12 12 13 13 13 13 13 13 13 13 13 14 14 14 14 13 14 14 14 14 14 14 14 14 14 13 13 13 13 13 13 12 12 12 12 12 12 12 12 12 12 12 12
12 12 12 12 13 13 13 13 13 13 13 13 13 13 13 13 13 13 14 13 13 13 13 13 13 13 13 13 13 12 12 12 12 11 11 12 12 12 12 12 12 12 12
11 11 12 12 12 12 12 12 12 13 13 13 13 13 13 13 13 13 13 13 13 13 13 13 13 13 12 12 12 12 12 12 11 11 11 12 12 11 11 11 11 11 11
11 11 11 12 12 12 12 12 12 12 12 12 12 12 13 13 13 13 13 13 13 12 13 12 12 12 12 12 11 11 11 11 11 11 11 11 11 11 11 11 11 11 11
11 11 11 11 11 12 12 12 12 12 12 12 12 12 12 12 12 12 12 13 12 12 12 12 12 12 11 11 11 11 11 11 11 11 11 11 11 11 11 11 11 11 11
10 10 11 11 11 11 11 11 12 11 11 12 12 12 12 12 12 12 12 12 12 12 12 12 11 11 11 11 11 11 11 11 11 11 11 11 11 11 11 10 10 10 10
10 10 10 10 11 11 11 11 11 11 11 11 11 11 12 12 12 12 12 12 12 11 11 11 11 11 11 11 10 11 10 10 10 10 10 10 10 10 10 10 10 10 10
10 10 10 10 11 11 11 11 11 11 11 11 11 11 11 11 11 11 11 11 11 11 11 11 11 11 10 10 10 10 10 10 10 10 10 10 10 10 10 10 10 10 10
10 10 10 10 10 10 10 10 10 10 10 10 10 10 11 11 11 11 11 11 11 11 11 11 10 10 10 10 10 10 10 10 10 9 9 10 10 10 9 9 9 9 9
10 10 10 10 10 10 10 10 10 10 10 10 10 10 10 10 10 10 10 10 10 10 10 10 10 10 10 10 9 9 9 9 9 9 9 9 9 9 9 9 9 9 9
9 9 9 9 9 10 10 9 9 9 9 9 10 10 10 10 10 10 10 10 10 10 10 10 10 10 9 9 9 9 9 9 9 9 9 9 9 9 9 9 9 8 8
9 9 9 9 9 9 9 9 9 9 9 9 9 9 9 9 9 9 9 10 10 9 9 9 9 9 9 9 9 8 8 8 8 9 9 9 8 8 8 8 8 8 8
9 9 9 9 9 9 9 9 9 9 9 9 9 9 9 9 9 9 9 9 9 9 9 9 9 9 9 9 9 8 8 9 8 8 8 8 8 8 8 8 8 8 8
9 9 9 9 9 9 9 9 9 9 8 8 9 9 9 9 9 9 9 9 9 9 9 9 9 8 8 8 8 8 8 8 8 7 7 8 8 8 7 7 7 7 7
9 9 9 9 9 9 8 8 8 8 8 8 8 9 9 9 9 9 9 9 8 8 8 8 8 8 8 8 8 8 8 8 7 7 7 6 7 7 7 7 7 7 7
8 9 9 9 9 8 8 8 8 8 8 8 8 8 8 8 9 8 8 8 8 8 8 8 8 8 8 8 7 7 7 7 7 7 6 6 6 6 7 7 7 6 6
Wind_Speed
3 4 6 7 8 9 9 9 10 10 11 11 11 11 10 10 10 10 9 9 9 8 9 9 10 9 10 10 10 10 10 10 10 10 10 9 9 9 8 7 5 8 10
3 5 7 8 8 9 9 10 10 10 10 11 11 11 10 10 9 9 9 9 8 9 9 9 9 9 9 9 9 10 10 10 10 9 7 8 8 8 8 7 7 8 8
2 5 8 8 9 9 9 10 10 10 10 10 10 10 10 9 9 9 9 8 8 8 9 9 9 9 9 9 10 10 10 9 8 6 3 6 8 8 7 7 7 7 7
2 5 7 8 9 10 10 10 10 10 10 10 10 10 9 9 9 9 8 8 8 8 8 9 9 9 10 10 10 9 9 8 6 1 3 6 7 8 6 7 7 7 7
2 4 6 8 9 10 11 11 10 10 9 9 9 9 9 9 8 8 8 8 8 8 8 8 9 9 9 9 9 9 8 7 4 2 5 5 6 8 7 7 6 6 7
2 4 6 7 9 10 11 11 11 10 9 9 9 9 8 8 8 8 8 8 8 8 8 9 9 9 9 9 9 8 7 5 2 5 5 5 6 8 8 8 8 7 7
2 3 5 7 9 10 11 11 11 10 9 9 8 8 8 8 8 8 8 8 8 8 8 8 9 9 8 8 8 8 7 3 3 5 4 5 6 7 7 8 7 7 7
2 3 5 6 7 9 11 11 10 10 9 9 8 8 7 8 8 7 7 8 8 8 8 8 8 8 8 8 7 7 6 2 3 4 4 5 7 6 6 6 6 7 7
2 3 5 6 7 8 9 10 10 10 9 9 9 8 7 7 7 7 6 7 7 7 7 7 8 8 8 8 7 7 6 2 3 4 4 5 6 6 6 6 6 7 7
1 3 4 6 7 8 8 9 10 9 9 9 9 8 8 7 7 6 6 6 6 6 7 7 8 8 8 8 8 7 5 2 4 4 4 6 6 6 6 6 7 7 8
1 1 3 5 5 6 6 8 9 9 9 9 8 8 6 6 6 6 6 6 6 6 7 8 8 8 8 8 8 6 3 3 4 4 5 7 6 6 6 7 8 8 9
2 2 2 4 5 5 5 6 7 7 7 6 6 6 5 5 4 5 7 6 6 6 7 7 8 7 5 6 6 4 3 3 4 4 6 7 6 5 7 8 8 8 8
3 2 1 3 5 5 4 5 4 5 5 5 5 5 5 5 4 4 5 5 5 5 5 6 6 5 4 4 4 4 3 3 3 4 6 7 6 6 7 8 8 8 8
3 3 2 3 4 5 4 4 4 4 4 4 4 4 4 3 3 3 3 3 4 4 4 4 4 5 5 5 4 4 4 3 3 4 7 8 7 7 7 7 7 7 8
3 3 2 3 5 5 5 3 4 3 3 4 4 4 4 3 3 3 3 3 3 3 4 4 4 5 5 5 4 4 4 4 4 4 5 8 8 7 7 7 7 7 7
4 4 3 4 5 6 4 4 3 4 4 4 4 4 5 4 4 3 3 3 3 3 3 4 5 4 4 4 4 4 4 4 3 3 4 6 8 8 7 7 8 7 7
5 4 4 4 5 6 5 5 4 4 4 3 4 4 4 4 5 4 3 3 3 3 3 4 4 4 3 4 4 3 3 3 3 3 3 3 5 8 8 7 7 6 6
4 4 4 3 5 5 5 4 3 3 4 3 3 4 4 4 5 4 3 3 3 3 3 3 3 4 3 3 3 2 2 2 3 3 3 3 3 3 6 7 6 6 5
4 4 4 4 5 5 4 4 4 3 3 3 3 3 4 5 5 4 3 3 4 3 3 3 3 3 3 3 2 2 2 2 2 3 3 3 3 3 3 5 5 5 5
3 4 4 4 5 5 4 4 3 3 2 3 3 3 4 4 5 4 3 4 4 3 3 3 3 3 3 3 3 2 1 2 2 2 2 2 3 2 2 2 1 3 4
3 4 4 4 4 4 4 4 3 3 2 2 2 4 4 4 4 4 3 4 3 3 3 4 3 4 3 3 3 2 2 2 3 2 2 2 2 2 1 0 0 1 1
3 3 4 4 4 4 4 3 2 2 2 1 2 3 4 5 4 4 4 3 3 3 4 4 3 3 2 3 2 2 2 3 3 3 3 3 2 2 1 1 1 1 1
3 3 4 5 4 4 4 3 3 2 1 1 2 2 3 4 4 4 4 3 3 4 4 4 4 4 3 3 2 2 2 2 2 3 4 3 3 2 2 2 2 2 2
3 3 4 5 4 4 4 5 6 4 3 3 3 2 3 3 3 4 4 4 4 3 4 4 4 3 4 3 2 2 2 1 2 2 3 3 3 3 3 2 2 3 3
3 4 4 5 5 5 5 5 5 4 3 2 3 3 3 3 3 3 4 4 4 3 4 4 4 3 3 4 3 2 2 1 3 3 3 3 2 2 2 3 3 3 3
2 3 4 5 4 4 5 5 6 5 4 4 4 4 3 3 3 4 4 4 4 3 4 4 4 5 4 4 4 3 3 2 3 3 3 4 3 2 3 3 3 3 3
Wind_Direction
170 167 160 162 156 151 144 141 139 138 135 133 132 129 124 120 115 110 107 104 101 100 100 101 101 100 97 93 90 89 86 84 83 81 78 77 76 76 74 69 70 82 70
182 173 162 167 158 155 149 145 141 140 139 136 133 130 126 123 119 114 109 105 104 103 102 100 99 101 98 95 92 90 87 85 83 83 90 95 85 76 73 64 51 70 70
169 169 167 170 163 156 152 145 141 142 142 138 136 133 130 127 123 121 114 110 106 106 103 100 97 96 98 97 96 93 89 86 82 84 117 95 89 80 76 72 71 74 71
172 171 169 170 170 160 152 145 140 141 142 140 136 136 134 130 124 121 120 114 111 108 103 101 99 98 97 99 98 94 90 85 81 85 92 82 84 80 78 76 76 75 73
176 171 162 168 172 162 154 148 145 139 137 139 139 136 135 132 128 125 122 117 113 110 107 107 106 103 100 97 96 94 89 86 93 102 83 80 80 77 76 77 76 77 72
181 171 156 159 168 164 157 151 148 143 138 136 138 139 137 135 133 128 121 117 114 112 111 110 109 107 104 100 96 92 88 86 136 87 83 78 79 78 74 74 72 72 72
191 172 157 152 161 164 159 154 148 146 141 138 136 135 138 137 131 127 124 119 117 116 115 113 112 110 107 104 100 94 88 77 86 86 80 76 72 74 77 73 67 66 68
201 180 166 155 154 159 160 154 150 149 143 138 136 136 133 133 129 125 124 122 120 119 116 116 116 113 109 104 101 95 86 75 100 89 84 78 67 74 75 71 66 66 68
210 183 169 166 158 151 154 155 151 149 144 139 134 129 125 126 125 124 123 125 123 121 121 119 116 113 111 107 103 98 93 68 88 87 82 73 71 76 76 72 72 73 70
232 191 174 168 161 159 156 149 147 145 138 131 127 123 122 123 125 124 128 125 125 124 124 122 118 114 110 107 105 105 111 143 91 88 77 72 71 74 73 72 73 73 73
289 198 183 170 157 150 151 148 146 141 133 132 128 125 135 144 142 136 118 117 120 123 126 125 121 117 116 110 105 110 130 108 92 79 67 61 63 73 77 78 74 74 72
269 256 204 183 162 144 137 140 146 147 147 149 145 145 147 144 136 129 115 113 117 120 123 124 125 130 136 123 117 132 116 99 91 83 64 54 57 75 82 82 75 72 71
252 243 228 196 164 146 140 138 133 140 149 150 149 151 146 142 138 135 136 134 134 140 136 136 144 134 128 116 118 114 97 94 90 84 65 55 57 73 83 81 77 73 74
233 228 215 198 168 147 142 138 140 140 144 145 148 151 150 145 146 141 138 142 147 145 143 145 140 133 127 123 120 113 107 99 93 86 68 62 61 71 77 76 76 75 76
226 223 207 186 171 154 145 141 144 142 136 140 147 148 153 152 149 145 137 140 144 148 148 144 144 137 130 124 116 110 104 98 98 98 85 67 60 65 70 69 71 75 73
226 214 208 182 170 156 152 152 147 138 136 140 145 152 154 148 146 141 134 136 138 151 153 153 147 140 133 127 120 114 109 104 94 98 99 87 69 63 65 64 64 66 67
222 201 191 184 171 159 155 154 147 143 144 149 142 152 154 153 153 147 143 143 140 146 151 150 145 138 134 134 132 124 115 110 106 100 96 95 91 75 67 64 61 59 62
211 195 183 174 170 157 153 152 147 145 144 148 148 153 160 159 159 149 150 147 140 142 145 147 156 147 146 151 147 140 134 125 119 109 104 103 94 88 77 65 58 52 55
195 181 170 172 166 154 144 143 136 140 153 156 159 158 163 160 164 156 156 151 154 151 154 151 156 157 153 155 151 148 149 146 137 136 127 114 99 88 82 76 64 51 48
174 164 160 169 162 148 140 140 134 146 158 155 164 169 172 167 169 162 157 159 164 165 166 162 152 153 157 159 153 146 152 163 168 167 158 139 125 113 86 69 62 61 57
151 154 153 160 162 154 152 158 163 168 169 170 165 171 175 172 174 169 165 168 174 177 176 169 157 151 158 165 170 170 177 189 192 189 192 185 162 153 151 165 337 332 51
166 167 157 164 168 170 170 165 168 157 167 173 168 174 179 176 176 177 176 179 180 180 176 175 170 174 176 195 200 195 203 199 200 202 200 205 204 190 198 217 240 270 289
172 176 170 164 174 177 167 152 140 134 146 183 193 185 180 177 177 181 184 186 185 188 187 187 192 194 191 195 226 233 226 228 198 191 204 209 212 217 218 220 239 258 271
188 172 171 160 168 176 174 182 183 191 197 210 201 187 172 174 178 181 186 190 188 190 191 194 199 208 201 199 200 244 275 292 238 213 200 208 222 231 229 230 234 244 254
194 181 177 163 170 180 184 189 193 200 201 195 186 183 184 178 182 183 189 191 193 196 198 198 195 202 210 210 204 205 214 230 239 241 240 229 238 240 244 245 237 241 245
187 183 177 167 178 186 190 193 198 196 192 191 195 192 196 191 186 191 193 197 200 200 201 204 200 199 208 209 208 208 213 213 219 228 246 249 252 254 265 250 239 233 239
Height
1527 1528 1528 1530 1531 1533 1534 1535 1536 1537 1537 1538 1538 1539 1539 1540 1540 1540 1540 1540 1540 1540 1541 1541 1540 1540 1540 1540 1540 1541 1541 1541 1541 1541 1541 1541 1541 1541 1541 1541 1541 1541 1541
1527 1528 1528 1530 1531 1532 1534 1535 1536 1537 1537 1538 1539 1539 1539 1540 1540 1540 1540 1541 1541 1541 1541 1541 1541 1541 1541 1541 1541 1541 1541 1542 1542 1542 1542 1542 1542 1542 1542 1542 1542 1542 1541
1526 1527 1528 1530 1531 1532 1533 1534 1535 1536 1537 1538 1539 1539 1540 1540 1540 1541 1541 1541 1541 1541 1541 1541 1541 1541 1541 1541 1541 1542 1542 1542 1543 1543 1543 1544 1543 1543 1543 1543 1542 1542 1542
1526 1527 1528 1529 1531 1532 1533 1534 1535 1536 1537 1538 1539 1539 1540 1540 1540 1541 1541 1541 1541 1541 1541 1541 1541 1542 1542 1542 1542 1542 1542 1543 1543 1544 1545 1545 1545 1544 1543 1543 1543 1543 1543
1526 1527 1527 1529 1530 1532 1533 1534 1535 1536 1537 1538 1538 1539 1540 1540 1540 1541 1541 1541 1541 1541 1541 1542 1542 1542 1542 1542 1542 1543 1543 1543 1544 1544 1545 1545 1545 1544 1544 1544 1544 1543 1543
1525 1526 1527 1528 1530 1531 1532 1533 1534 1535 1536 1537 1538 1539 1539 1540 1540 1540 1541 1541 1541 1541 1542 1542 1542 1542 1542 1543 1543 1543 1543 1544 1544 1545 1545 1546 1545 1544 1544 1544 1544 1544 1543
1525 1525 1526 1527 1529 1530 1532 1533 1534 1535 1536 1537 1538 1538 1539 1539 1540 1540 1541 1541 1541 1541 1542 1542 1542 1542 1542 1543 1543 1543 1543 1544 1545 1545 1545 1545 1545 1544 1544 1544 1544 1544 1543
1524 1524 1525 1526 1528 1529 1531 1532 1533 1534 1535 1536 1537 1538 1538 1539 1539 1540 1540 1541 1541 1541 1541 1542 1542 1542 1542 1543 1543 1543 1544 1544 1545 1545 1545 1546 1545 1544 1544 1544 1544 1544 1543
1523 1523 1524 1525 1526 1528 1529 1531 1532 1533 1534 1535 1536 1537 1537 1538 1539 1539 1540 1540 1540 1541 1541 1541 1542 1542 1542 1543 1543 1543 1544 1544 1546 1546 1546 1545 1545 1544 1544 1544 1544 1544 1543
1521 1522 1523 1524 1525 1526 1528 1529 1531 1532 1533 1534 1535 1536 1537 1537 1538 1538 1539 1539 1540 1540 1540 1541 1541 1542 1542 1542 1543 1543 1544 1544 1546 1546 1546 1545 1545 1544 1544 1544 1544 1543 1543
1519 1520 1521 1522 1523 1524 1526 1527 1529 1531 1532 1533 1534 1535 1536 1537 1537 1538 1538 1539 1539 1539 1540 1540 1541 1541 1542 1542 1542 1543 1544 1545 1545 1545 1545 1545 1545 1544 1544 1544 1544 1543 1543
1517 1518 1519 1520 1521 1522 1524 1525 1527 1529 1531 1532 1533 1534 1534 1535 1536 1537 1537 1538 1538 1539 1539 1540 1540 1541 1541 1542 1542 1543 1544 1544 1545 1545 1544 1544 1544 1544 1544 1544 1543 1543 1542
1515 1516 1517 1518 1519 1520 1522 1523 1525 1527 1529 1530 1531 1532 1533 1534 1535 1536 1536 1537 1538 1538 1539 1539 1540 1540 1541 1541 1542 1542 1543 1544 1544 1544 1544 1544 1544 1544 1544 1543 1543 1543 1542
1513 1514 1514 1516 1517 1518 1520 1522 1524 1525 1527 1528 1529 1531 1532 1533 1533 1534 1535 1536 1536 1537 1538 1538 1539 1539 1540 1541 1541 1542 1542 1543 1543 1543 1543 1543 1543 1543 1543 1543 1543 1542 1542
1511 1512 1512 1514 1515 1516 1518 1520 1522 1523 1525 1527 1528 1529 1530 1531 1532 1533 1534 1535 1535 1536 1537 1537 1538 1539 1539 1540 1541 1541 1541 1542 1542 1542 1542 1542 1543 1543 1542 1542 1542 1541 1541
1509 1510 1511 1512 1513 1515 1517 1519 1520 1522 1523 1525 1526 1527 1528 1530 1530 1531 1532 1533 1534 1535 1536 1536 1537 1538 1538 1539 1539 1540 1540 1541 1541 1541 1542 1541 1542 1542 1542 1541 1541 1541 1540
1507 1508 1509 1510 1511 1513 1515 1517 1518 1520 1522 1523 1524 1525 1527 1528 1529 1529 1530 1531 1532 1533 1534 1535 1536 1536 1537 1538 1538 1539 1539 1539 1540 1540 1540 1540 1540 1540 1540 1540 1540 1540 1539
1505 1506 1506 1508 1509 1511 1513 1515 1517 1518 1520 1521 1522 1523 1525 1526 1527 1528 1529 1530 1531 1532 1533 1534 1534 1535 1536 1537 1537 1537 1538 1538 1538 1539 1539 1539 1539 1539 1539 1539 1539 1538 1538
1503 1504 1505 1506 1507 1508 1511 1513 1515 1516 1518 1520 1521 1522 1523 1524 1525 1526 1527 1528 1529 1530 1531 1532 1533 1534 1534 1535 1536 1536 1536 1536 1537 1537 1537 1537 1537 1537 1537 1537 1537 1537 1537
1501 1502 1503 1504 1505 1507 1509 1511 1513 1515 1516 1518 1518 1520 1521 1522 1523 1524 1525 1526 1527 1529 1530 1530 1531 1532 1533 1533 1534 1534 1534 1535 1535 1535 1536 1536 1535 1535 1536 1535 1535 1535 1535
1499 1500 1501 1503 1504 1505 1507 1509 1511 1512 1514 1515 1516 1517 1519 1520 1521 1522 1523 1525 1526 1527 1527 1529 1529 1530 1531 1532 1532 1533 1533 1533 1533 1533 1533 1534 1534 1533 1533 1533 1533 1533 1533
1497 1498 1500 1502 1503 1504 1506 1508 1509 1511 1512 1513 1514 1515 1517 1518 1519 1520 1521 1523 1524 1524 1525 1526 1528 1528 1529 1530 1530 1531 1532 1533 1530 1530 1531 1531 1531 1531 1531 1531 1531 1531 1530
1496 1497 1498 1501 1502 1503 1505 1507 1508 1509 1510 1511 1512 1513 1514 1515 1517 1518 1519 1520 1521 1522 1523 1524 1525 1526 1526 1527 1528 1529 1530 1530 1530 1529 1528 1529 1529 1529 1528 1528 1528 1528 1528
1495 1496 1497 1499 1501 1503 1504 1505 1506 1507 1508 1509 1510 1510 1512 1513 1514 1516 1517 1518 1518 1519 1520 1521 1522 1523 1524 1524 1525 1525 1526 1526 1527 1527 1527 1526 1526 1526 1526 1525 1525 1525 1525
1494 1495 1497 1498 1500 1502 1502 1504 1505 1506 1506 1507 1508 1508 1509 1511 1512 1513 1514 1515 1516 1516 1517 1518 1519 1520 1521 1521 1522 1522 1523 1523 1524 1524 1524 1524 1523 1523 1522 1522 1522 1522 1521
1494 1495 1496 1497 1499 1500 1501 1502 1503 1504 1504 1505 1506 1506 1507 1508 1509 1510 1511 1512 1513 1513 1514 1515 1516 1516 1517 1518 1519 1520 1520 1520 1520 1520 1520 1520 1520 1519 1519 1519 1519 1518 1518